Overview Statistics Trail Chart Weather Telemetry Raw packets
 

This is the latest recevied weather packets stored in our database for station/object KQ7A. If no packets are shown the sender has not sent any weather packets the latest 10 day(s).

<< 75 76 77 78 79 80 81 >>
Time Temp. Humidity Pressure Rain* Wind** Luminosity Snow
1788141931 24.44° C 34% 1016.2 hPa 0 mm - 16 W/m² -
1788141626 24.44° C 34% 1016.3 hPa 0 mm - 20 W/m² -
1788141321 24.44° C 34% 1016.1 hPa 0 mm - 23 W/m² -
1788141016 23.89° C 33% 1016.3 hPa 0 mm - 25 W/m² -
1788140711 24.44° C 35% 1016.2 hPa 0 mm - 28 W/m² -
1788140407 24.44° C 35% 1016.3 hPa 0 mm - 29 W/m² -
1788140102 24.44° C 34% 1016.1 hPa 0 mm - 32 W/m² -
1788139796 24.44° C 35% 1016.4 hPa 0 mm - 35 W/m² -
1788139490 23.89° C 35% 1016.1 hPa 0 mm - 36 W/m² -
1788139184 23.89° C 36% 1016.3 hPa 0 mm - 40 W/m² -
1788138879 23.89° C 36% 1016.2 hPa 0 mm - 51 W/m² -
1788138576 24.44° C 37% 1016.3 hPa 0 mm - 55 W/m² -
1788138276 24.44° C 37% 1016.3 hPa 0 mm - 54 W/m² -
1788137971 25° C 35% 1016.2 hPa 0 mm - 57 W/m² -
1788137667 26.11° C 33% 1016.3 hPa 0 mm - 62 W/m² -
1788137366 26.67° C 32% 1016.3 hPa 0 mm - 97 W/m² -
1788137063 27.22° C 30% 1016.1 hPa 0 mm - 203 W/m² -
1788136758 27.78° C 28% 1016.2 hPa 0 mm - 222 W/m² -
1788136454 27.78° C 28% 1016.2 hPa 0 mm - 252 W/m² -
1788136148 27.78° C 28% 1016.3 hPa 0 mm - 274 W/m² -
1788135847 27.78° C 27% 1016.3 hPa 0 mm - 279 W/m² -
1788135543 28.33° C 28% 1016.2 hPa 0 mm - 107 W/m² -
1788135237 28.33° C 26% 1016.3 hPa 0 mm - 328 W/m² -
1788134935 27.78° C 26% 1016.2 hPa 0 mm - 310 W/m² -
1788134630 28.33° C 28% 1016.4 hPa 0 mm - 374 W/m² -

* Rain latest hour (hover to see other rain measurements)
** Current wind speed in m/s (hover to see current wind gust speed)